STARLINK-11596, 64321

Orbit data source: Space-Track

STARLINK-11596, 64321 is a payload satellite owned by SpaceX/Seattle (US) in LEO that was launched on Tue, 10 Jun 2025 UTC via an FALCON 9 launch vehicle from the Air Force Eastern Test Range (AFETR). Payload-class satellites include a variety of spacecraft equipped with specific instruments for various scientific and technological missions. These include communications satellites like Starlink; space stations such as the ISS; scientific satellites like the Hubble; Earth observation satellites from companies like Planet Labs, Umbra, and HawkEye 360; GPS; miniature CubeSats for education and research; and military/defense satellites.

Loading next visibility...
Identifier
64321, 2025-124E
Orbit
LEO
Country
Flag of USUS
Related business
Manufacturer
SpaceX/Seattle
Mission
Operational Commercial Communications
Bus & Motor
STARLINK V2MD, Unknown motor
Mass
960 kg wet, ~910 kg dry
Launch date (UTC)
2025-06-10 (11 months ago)
Launch vehicle
FALCON 9
Launch site
Air Force Eastern Test Range (AFETR)
Object type
Payload
Rocket body
Debris
Shape & HBR
Box + 2 Pan, 18.1 m
Radar Cross Section
36.964 m², Large (>1 m²)

Expand to show TLE details & history
Last TLE update: 1 day ago

TLE from 1 day ago
0 STARLINK-11596
1 64321U 25124E   26119.31277203  .00136129  00000-0  10460-2 0  9999
2 64321  42.9983  84.2942 0000914 253.1454 106.9313 15.70864031 50799
Epoch: 2026-04-29T07:30Z
TLE epoch observation values (Epoch: 2026-04-29T07:30:23.503Z)
Latitude
-0.00004°
Longitude
114.42069°
Altitude
356.377 km
Speed
7.697 km/s
True Right ascension
05h 37m 10s
True Declination
0° 00' 00"
Sunlit
Object was in daylight at epoch
Visualization orbit readout
Latitude
Unknown
Longitude
Unknown
Altitude
Unknown
Speed
Unknown
Apparent Right ascension
Unknown
Apparent Declination
Unknown
Sunlit
N/A
Visualization observer readout
Local Sidereal Time
16:37:36
Azimuth
Unknown
Elevation
Unknown
Doppler factor
Unknown
Orbital elements
Apogee altitude
359.024 km
Perigee altitude
357.793 km
Semi-major axis
6,736.545 km
Eccentricity
0.00009
Inclination
42.9983°
RAAN
84.2942°
Arg. of periapsis
253.1454°
True anomaly
106.94132°
Mean anomaly
106.9313°
Eccentric anomaly
106.93631°
Mean motion
3.92543 °/min
Orbital period
91.71 mins
BSTAR
0.001046
Loading maneuver chart data...
Computing Atmospheric mass density...
Loading historical data...
Loading historical data...
Loading historical data...
Loading historical data...
Loading historical data...
Loading historical data...
Loading historical data...

Documentation

Showing up to 5 results
|